Regional Weather Roundup
Issued by NWS Grand Forks, ND

Home | Current Version | Previous Version | Graphics & Text | Print | Product List | Glossary On
Versions: 1 2 3 4 5 6 7 8 9 10 11 12 13 14 15 16 17 18 19 20 21 22 23 24 25 26 27 28 29 30 31 32 33 34 35 36 37 38 39 40 41 42 43 44 45 46 47 48 49 50
000
ASUS43 KFGF 230410
RWRFGF
PRAIRIE TO PINES  WEATHER ROUNDUP
NATIONAL WEATHER SERVICE EASTERN NORTH DAKOTA/GRAND FORKS ND
1100 PM CDT FRI AUG 22 2014

 **SATELLITE DATA USED TO AUGMENT SKY COVER AT AUTOMATED STATIONS**
 *****  WEATHER ACROSS EASTERN NORTH DAKOTA  *****

CITY           SKY/WX    TMP DP  RH WIND       PRES   REMARKS
GRAND FORKS    LGT RAIN  64  63  94 N12       30.08R FOG
GRAND FRKS AFB CLOUDY    65  64  96 N10       30.10R
GRAND FRKS NWS   N/A     50 N/A N/A NW5         N/A
DEVILS LAKE    CLOUDY    64  55  72 NE13      30.12R
FARGO          CLOUDY    68  64  87 N9        30.06R
WAHPETON ARPT  PTCLDY    66  63  88 N8        30.04F
$$

 ***** WEATHER ACROSS CENTRAL AND WESTERN NORTH DAKOTA  *****

CITY           SKY/WX    TMP DP  RH WIND       PRES   REMARKS
BISMARCK       CLOUDY    67  64  90 E9        30.09R
MINOT          CLOUDY    62  59  90 N7        30.13S
JAMESTOWN      PTCLDY    63  61  93 CALM      30.09R
MINOT AFB      CLOUDY    63  61  93 NE8       30.14R
GARRISON         N/A     64  60  87 NE9G18    30.12R
WILLISTON      CLOUDY    64  55  72 NE10      30.14R
DICKINSON      CLOUDY    63  61  93 E14       30.07F
HETTINGER      CLOUDY    66  63  90 NE9       30.07S
$$

 *****  OTHER AIRPORT OBSERVATIONS IN OUR AREA  *****

CITY           SKY/WX    TMP DP  RH WIND       PRES   REMARKS
WALHALLA         N/A     61  61 100 N9        30.13R
GRAFTON AIRPOR CLOUDY    63  61  94 N10       30.11R
VALLEY CITY AR CLOUDY    66  66 100 NE7       30.09S
CANDO          CLOUDY    59  57  94 NE12      30.15R
CAVALIER APRT  CLOUDY    63  59  88 N10       30.12R
GWINNER        CLEAR     66  66 100 NE9       30.07F
ROLLA          FAIR      55  55 100 N10       30.18S
 ***** THE ABOVE OBSERVATIONS ARE NON NWS ARE NOT QUALITY
       CONTROLLED AND MAY MIS-REPORT RAIN FOR SNOW...
$$

  *****  WEATHER ACROSS NORTHERN MINNESOTA  *****

CITY           SKY/WX    TMP DP  RH WIND       PRES   REMARKS
FLAG ISLAND    CLOUDY    68  64  88 NW8       30.07R
WARROAD        MOCLDY    66  63  88 N6        30.08S
ROSEAU         MOCLDY    66  61  82 N5        30.08S
HALLOCK        CLOUDY    64  61  88 N8        30.09R
THF RVR FALLS  CLOUDY    66  64  94 N15       30.07R
BAUDETTE       CLEAR     64  62  93 CALM      30.07R
WASKISH        CLOUDY    70  66  88 CALM      30.07R
CROOKSTON      CLOUDY    66  64  94 N13       30.08R
$$
  *****  WEATHER ACROSS CENTRAL AND WEST MINNESOTA  *****

CITY           SKY/WX    TMP DP  RH WIND       PRES   REMARKS
FOSSTON        CLOUDY    64  64 100 CALM      30.06R
BEMIDJI        CLOUDY    67  67  99 CALM      30.06R
PARK RAPIDS    FOG       66  66 100 CALM      30.05S VSB 1/4
ELBOW LAKE     FAIR      68  66  93 N3        30.03F
WADENA         PTCLDY    66  64  94 CALM      30.04F
DETROIT LAKES  CLOUDY    68  66  94 N5        30.06F
MOORHEAD       CLOUDY    68  68 100 N8        30.06S
FERGUS FALLS   CLEAR     66  64  94 N3        30.04F
MORRIS MN      MOCLDY    72  70  94 NE6       30.01F
STAPLES        CLEAR     68  66  94 CALM      30.04F
$$
  *****  WEATHER ELSEWHERE ACROSS MINNESOTA  *****

CITY           SKY/WX    TMP DP  RH WIND       PRES   REMARKS
DULUTH         FOG       62  60  93 E6        30.07S VSB 1/2
INTRNTL FALLS  PTCLDY    67  65  93 NE3       30.06S
ELY            CLOUDY    66  63  88 CALM      30.08R
CLOQUET        CLOUDY    61  59  94 CALM      30.08S FOG
WHEATON        PTCLDY    64  64 100 N5        30.05R
BRAINERD       CLEAR     66  65  96 CALM      30.05S
HIBBING        CLOUDY    70  66  87 S7        30.07R
ALEXANDRIA     MOCLDY    72  68  87 NE6       30.05S
SAINT CLOUD    CLEAR     70  67  90 NE3       30.02F
MINNEAPOLIS    PTCLDY    71  68  90 N6        30.01F
$$

  *****  WEATHER ACROSS SOUTH DAKOTA  *****

CITY           SKY/WX    TMP DP  RH WIND       PRES   REMARKS
SIOUX FALLS    MOCLDY    75  69  81 E9        30.00S
BROOKINGS      NOT AVBL
WATERTOWN      CLOUDY    70  68  93 NE10      30.04R
HURON          CLOUDY    76  68  76 E8        29.99R
SISSETON         N/A     67  67 100 N7        30.03S
ABERDEEN       PTCLDY    68  66  93 NE10      30.03R
MITCHELL       CLOUDY    75  70  84 SE7       29.98R
PIERRE         CLOUDY    70  66  87 E14G23    29.98R
MOBRIDGE       CLOUDY    69  66  90 E10       30.02R
RAPID CITY     CLOUDY    68  63  84 NE10      30.01S
$$

  *****  SOME WEATHER IN NEARBY STATES *****

CITY           SKY/WX    TMP DP  RH WIND       PRES   REMARKS
GLASGOW MT     CLOUDY    62  54  74 E18G25    30.10S
GREAT FALLS MT CLOUDY    50  49  96 N16G23    30.14F
CHEYENNE WY      N/A     58  56  93 S14       30.10F
SCOTTSBLUFF NE CLOUDY    64  62  93 E12       30.01F
OMAHA NE       MOCLDY    76  73  91 N7        29.94S
DES MOINES IA  CLOUDY    78  74  87 CALM      29.92S
DAVENPORT IA   PTCLDY    75  72  90 E5        29.96F
CHICAGO IL     PTCLDY    79  70  74 NE5       29.99R
EAU CLAIRE WI  MOCLDY    70  69  97 N5        30.00S
LA CROSSE WI   MOCLDY    75  72  90 NW8       29.97S
$$

  *****  SOME NATIONAL WEATHER *****

CITY           SKY/WX    TMP DP  RH WIND       PRES   REMARKS
LA GUARDIA NY  MOCLDY    70  57  63 E12       30.05S
RALEIGH NC     MOCLDY    80  72  76 VRB3      29.98R
ATLANTA GA     PTCLDY    81  70  69 NW6       30.05R
NEW ORLEANS LA CLEAR     83  72  69 SW7       30.03S
OKLAHOMA CITY  CLEAR     84  60  44 S10       29.93R
ALBUQUERQUE NM PTCLDY    61  55  81 SW5       30.16S
SALT LAKE CITY CLOUDY    60  56  86 CALM      29.98F
LOS ANGELES CA CLOUDY    69  63  81 SW9       29.95R
BOISE ID       PTCLDY    68  41  37 N15       29.91R
SEATTLE WA     PTCLDY    69  55  60 N7        30.09R
$$

*** WEATHER ACROSS MANITOBA...SASKATCHEWAN AND ONTARIO ***
                ***ONTARIO***

CITY           SKY/WX    TMP DP  RH WIND       PRES   REMARKS
GERALDTON      MOCLDY    64  63  94 CALM      30.08S
THUNDER BAY    MOCLDY    64  63  94 NW2       30.06S
SIOUX LOOKOUT  MOCLDY    66  64  94 CALM      30.07S
TORONTO        MOCLDY    70  64  83 E6        30.03S
BIG TROUT LK   CLOUDY    50  46  87 N10G18    30.17S
PICKLE LAKE    NOT AVBL
DRYDEN         CLOUDY    66  63  88 N2        30.08R
KENORA         CLOUDY    68  64  88 NW6       30.09R
$$
                *** MANITOBA***

CITY           SKY/WX    TMP DP  RH WIND       PRES   REMARKS
BRANDON        CLOUDY    57  54  88 NE12      30.20R
DAUPHIN        CLOUDY    55  54  94 N9        30.24R
ISLAND LAKE    CLOUDY    50  48  93 NE8       30.27
PILOT MOUND      N/A     57  55  94 N8          N/A
THE PAS        PTCLDY    55  48  76 NE6       30.32R
THOMPSON       PTCLDY    48  45  87 NE7       30.37R
WINNIPEG       MOCLDY    57  57 100 N7        30.14R
LYNN LAKE      CLOUDY    52  45  76 MISG      30.40R
CHURCHILL      CLOUDY    48  41  76 N10       30.41R
GILLAM         MOCLDY    48  41  76 NE14G20   30.38R
$$
                ***SASKATCHEWAN***

CITY           SKY/WX    TMP DP  RH WIND       PRES   REMARKS
ESTEVAN        CLOUDY    59  55  88 NE9       30.19R
KINDERSLEY     LGT RAIN  52  46  82 N8        30.31R
LLOYDMINSTER   CLOUDY    52  43  71 N6        30.36S
PRINCE ALBERT  MOCLDY    55  54  94 E2        30.30S
REGINA         MOCLDY    57  50  77 NE12      30.22F
YORKTON        CLEAR     50  48  93 NE6       30.26R
N. BATTLEFORD  CLOUDY    54  48  82 N9        30.34S
LA RONGE       PTCLDY    54  48  82 CALM      30.35R
SASKATOON      CLOUDY    57  50  77 N12       30.30S
SWIFT CURRENT  CLOUDY    55  52  88 NE13      30.23R
$$
NOTE: THESE ARE AUTOMATED STATIONS WITH LIMITED QUALITY CONTROL
      "FAIR" INDICATES FEW OR NO CLOUDS BELOW 12,000 FEET WITH NO
      SIGNIFICANT WEATHER AND/OR OBSTRUCTIONS TO VISIBILITY.
      SKY/WX - SKY CONDITION AND SIGNIFICANT WEATHER.
      TMP - AIR TEMPERATURE.    DP   - DEWPOINT TEMPERATURE.
      RH  - RELATIVE HUMIDITY.  PRES - PRESSURE.
      HX  - HEAT INDEX.         WCI  - WIND CHILL INDEX.
$


USA.gov is the U.S. government's official web portal to all federal, state and local government web resources and services.